Weather History for Elizabethton, TN

Change the Weather History Date:

Tuesday, August 13, 2013

  Actual Average (KTRI) Record (KTRI)
Temperature  
Mean Temperature 70 °F 74 °F  
Max Temperature 77 °F 85 °F 96 °F (2010)
Min Temperature 64 °F 63 °F 51 °F (1964)
Degree Days  
Heating Degree Days 0 0  
Month to date heating degree days 0  
Since 1 June heating degree days 11  
Since 1 July heating degree days 0  
Cooling Degree Days 6 9  
Month to date cooling degree days 119  
Year to date cooling degree days 697  
Since 1 June cooling degree days 624  
Growing Degree Days 20 (Base 50)    
Moisture  
Dew Point 67 °F    
Average Humidity 94    
Maximum Humidity 100    
Minimum Humidity 74    
Precipitation  
Precipitation 0.00 in 0.11 in 1.57 in (2013)
Month to date precipitation 1.63  
Year to date precipitation 27.61  
Snow  
Snow 0.00 in 0.00 in - ()
Month to date snowfall 0.0  
Since 1 June snowfall 0.0  
Since 1 July snowfall 0.0  
Snow Depth -    
Sea Level Pressure  
Sea Level Pressure 29.97 in    
Wind  
Wind Speed 2 mph (WSW)    
Max Wind Speed 10 mph    
Max Gust Speed -    
Visibility 9 miles    
Events Rain    
T = Trace of Precipitation, MM = Missing Value Source: NWS Daily Summary

Daily Weather History Graph

Daily Weather History Graph

Search for Another Location

Airport:

Trip Planner

Search our weather history database for the weather conditions in past years. The results will help you decide how hot, cold, wet, or windy it might be!

Date:

Astronomy

Aug. 13, 2013 Rise Set
Actual Time 6:45 AM EDT 8:21 PM EDT
Civil Twilight 6:17 AM EDT 8:48 PM EDT
Nautical Twilight 5:44 AM EDT 9:21 PM EDT
Astronomical Twilight 5:09 AM EDT 9:56 PM EDT
Moon 1:24 PM EDT (8/13) No Moon Set
Length of Visible Light 14h 31m
Length of Day
13h 36m
Waxing Crescent, 41% of the Moon is Illuminated
Aug 13
Waxing Crescent
Aug 14
First Quarter
Aug 20
Full
Aug 28
Last Quarter
Sep 5
New

Hourly Weather History & Observations

Time (EDT) Temp. Dew Point Humidity Pressure Visibility Wind Dir Wind Speed Gust Speed Precip Events Conditions
12:15 AM 66.2 °F 66.2 °F 100% 30.05 in 10.0 mi Calm Calm - N/A   Clear
12:55 AM 66.2 °F 66.2 °F 100% 30.04 in 10.0 mi Calm Calm - N/A   Partly Cloudy
1:15 AM 66.2 °F 66.2 °F 100% 30.03 in 10.0 mi Calm Calm - N/A   Clear
1:35 AM 66.2 °F 66.2 °F 100% 30.02 in 10.0 mi Calm Calm - N/A   Partly Cloudy
1:55 AM 66.2 °F 66.2 °F 100% 30.01 in 10.0 mi Calm Calm - N/A   Scattered Clouds
2:15 AM 66.2 °F 66.2 °F 100% 30.01 in 10.0 mi Calm Calm - N/A   Scattered Clouds
2:35 AM 66.2 °F 66.2 °F 100% 30.01 in 10.0 mi Calm Calm - N/A   Mostly Cloudy
2:55 AM 66.2 °F 66.2 °F 100% 30.00 in 10.0 mi Calm Calm - N/A   Overcast
3:15 AM 68.0 °F 66.2 °F 94% 29.99 in 10.0 mi Calm Calm - N/A   Overcast
3:35 AM 66.2 °F 66.2 °F 100% 29.98 in 10.0 mi Calm Calm - N/A   Mostly Cloudy
3:55 AM 66.2 °F 66.2 °F 100% 29.98 in 10.0 mi Calm Calm - N/A   Mostly Cloudy
4:15 AM 68.0 °F 66.2 °F 94% 29.97 in 7.0 mi Calm Calm - N/A Rain Light Rain
4:35 AM 68.0 °F 66.2 °F 94% 29.96 in 10.0 mi Calm Calm - N/A   Overcast
4:55 AM 66.2 °F 66.2 °F 100% 29.96 in 10.0 mi Calm Calm - N/A   Overcast
5:15 AM 68.0 °F 66.2 °F 94% 29.96 in 10.0 mi Calm Calm - N/A Rain Light Rain
5:35 AM 68.0 °F 68.0 °F 100% 29.96 in 9.0 mi NW 4.6 mph - N/A   Light Drizzle
5:55 AM 68.0 °F 68.0 °F 100% 29.96 in 10.0 mi Calm Calm - N/A   Overcast
6:15 AM 68.0 °F 68.0 °F 100% 29.96 in 10.0 mi Calm Calm - N/A   Overcast
6:35 AM 69.8 °F 68.0 °F 94% 29.96 in 9.0 mi Calm Calm - N/A   Light Drizzle
6:55 AM 68.0 °F 68.0 °F 100% 29.97 in 2.5 mi Variable 4.6 mph - N/A Rain Heavy Rain
7:15 AM 68.0 °F 68.0 °F 100% 29.97 in 10.0 mi WSW 3.5 mph - N/A   Overcast
7:35 AM 68.0 °F 68.0 °F 100% 29.97 in 10.0 mi SW 4.6 mph - N/A   Overcast
7:55 AM 68.0 °F 68.0 °F 100% 29.98 in 10.0 mi SW 3.5 mph - N/A   Overcast
8:15 AM 69.8 °F 69.8 °F 100% 29.98 in 10.0 mi Calm Calm - N/A   Overcast
8:35 AM 69.8 °F 69.8 °F 100% 29.98 in 10.0 mi Calm Calm - N/A   Overcast
8:55 AM 69.8 °F 69.8 °F 100% 29.98 in 10.0 mi Calm Calm - N/A   Overcast
9:15 AM 71.6 °F 69.8 °F 94% 29.98 in 10.0 mi Calm Calm - N/A   Overcast
9:35 AM 71.6 °F 69.8 °F 94% 29.98 in 10.0 mi WSW 3.5 mph - N/A   Overcast
9:55 AM 71.6 °F 69.8 °F 94% 29.97 in 10.0 mi WSW 4.6 mph - N/A   Overcast
10:15 AM 73.4 °F 69.8 °F 88% 29.97 in 10.0 mi SW 8.1 mph - N/A   Overcast
10:35 AM 73.4 °F 69.8 °F 88% 29.97 in 10.0 mi SW 9.2 mph - N/A   Overcast
10:55 AM 73.4 °F 69.8 °F 88% 29.97 in 10.0 mi WSW 8.1 mph - N/A   Overcast
11:15 AM 73.4 °F 69.8 °F 88% 29.97 in 10.0 mi WSW 6.9 mph - N/A   Light Drizzle
11:35 AM 69.8 °F 68.0 °F 94% 29.98 in 2.5 mi SW 9.2 mph - N/A Rain Heavy Rain
11:55 AM 71.6 °F 69.8 °F 94% 29.98 in 9.0 mi Calm Calm - N/A   Light Drizzle
12:15 PM 73.4 °F 69.8 °F 88% 29.97 in 10.0 mi Calm Calm - N/A   Mostly Cloudy
12:35 PM 73.4 °F 69.8 °F 88% 29.96 in 10.0 mi SW 5.8 mph - N/A   Overcast
12:55 PM 71.6 °F 68.0 °F 88% 29.97 in 10.0 mi NW 10.4 mph - N/A   Drizzle
1:15 PM 66.2 °F 64.4 °F 94% 29.97 in 1.2 mi Variable 5.8 mph - N/A Rain Heavy Rain
1:35 PM 68.0 °F 66.2 °F 94% 29.98 in 10.0 mi ESE 3.5 mph - N/A   Overcast
1:55 PM 69.8 °F 66.2 °F 88% 29.97 in 10.0 mi SSE 4.6 mph - N/A   Overcast
2:15 PM 69.8 °F 66.2 °F 88% 29.98 in 9.0 mi Calm Calm - N/A   Light Drizzle
2:35 PM 69.8 °F 68.0 °F 94% 29.97 in 10.0 mi SW 3.5 mph - N/A   Mostly Cloudy
2:55 PM 71.6 °F 68.0 °F 88% 29.96 in 10.0 mi Calm Calm - N/A   Mostly Cloudy
3:15 PM 71.6 °F 68.0 °F 88% 29.96 in 10.0 mi Calm Calm - N/A   Scattered Clouds
3:35 PM 73.4 °F 68.0 °F 83% 29.94 in 10.0 mi Calm Calm - N/A   Partly Cloudy
3:55 PM 75.2 °F 69.8 °F 83% 29.94 in 10.0 mi Calm Calm - N/A   Scattered Clouds
4:15 PM 75.2 °F 68.0 °F 78% 29.92 in 10.0 mi Calm Calm - N/A   Mostly Cloudy
4:35 PM 75.2 °F 69.8 °F 83% 29.91 in 10.0 mi Calm Calm - N/A   Mostly Cloudy
4:55 PM 75.2 °F 69.8 °F 83% 29.91 in 10.0 mi WSW 9.2 mph - N/A   Scattered Clouds
5:15 PM 77.0 °F 69.8 °F 78% 29.91 in 10.0 mi West 9.2 mph - N/A   Partly Cloudy
5:35 PM 77.0 °F 68.0 °F 74% 29.92 in 10.0 mi WSW 9.2 mph - N/A   Partly Cloudy
5:55 PM 71.6 °F 66.2 °F 83% 29.93 in 7.0 mi Variable 3.5 mph - N/A Rain Light Rain
6:15 PM 68.0 °F 66.2 °F 94% 29.94 in 1.8 mi Calm Calm - N/A Rain Light Rain
6:35 PM 69.8 °F 66.2 °F 88% 29.94 in 10.0 mi Calm Calm - N/A   Mostly Cloudy
6:55 PM 69.8 °F 68.0 °F 94% 29.94 in 10.0 mi Calm Calm - N/A   Scattered Clouds
7:55 PM 68.0 °F 68.0 °F 100% 29.94 in 10.0 mi Calm Calm - N/A   Partly Cloudy
8:15 PM 68.0 °F 66.2 °F 94% 29.95 in 10.0 mi Calm Calm - N/A   Clear
8:35 PM 66.2 °F 66.2 °F 100% 29.95 in 9.0 mi Calm Calm - N/A   Partly Cloudy
8:55 PM 66.2 °F 66.2 °F 100% 29.96 in 8.0 mi Calm Calm - N/A   Scattered Clouds
9:15 PM 66.2 °F 66.2 °F 100% 29.95 in 8.0 mi Calm Calm - N/A   Overcast
9:35 PM 66.2 °F 66.2 °F 100% 29.95 in 8.0 mi Calm Calm - N/A   Mostly Cloudy
9:55 PM 66.2 °F 66.2 °F 100% 29.97 in 8.0 mi NE 3.5 mph - N/A   Mostly Cloudy
10:15 PM 68.0 °F 64.4 °F 88% 29.97 in 10.0 mi Calm Calm - N/A   Scattered Clouds
10:35 PM 66.2 °F 64.4 °F 94% 29.97 in 10.0 mi NW 4.6 mph - N/A   Scattered Clouds
10:55 PM 64.4 °F 64.4 °F 100% 29.98 in 9.0 mi NNW 4.6 mph - N/A   Mostly Cloudy
11:15 PM 64.4 °F 64.4 °F 100% 29.98 in 8.0 mi Calm Calm - N/A   Mostly Cloudy
11:35 PM 64.4 °F 64.4 °F 100% 29.98 in 8.0 mi West 3.5 mph - N/A   Mostly Cloudy
11:55 PM 64.4 °F 64.4 °F 100% 29.99 in 8.0 mi Calm Calm - N/A   Overcast